[[{"header":{"parameterUnit":"m.s-1","parameterCategory":2,"la1":30.2991,"la2":30.254,"lo1":-89.0895,"lo2":-89.0444,"dy":0.0017,"dx":0.0017,"nx":28,"ny":28,"refTime":"2025-06-19T21:00:00:Z","depth":"0","parameterNumber":2,"parameterNumberName":"U-component_of_CURRENTS"},"data":[0,0,0,0,0,0,0,0,0,0,0,0,0,0,0,0,0,0,0,0,0,0,0,0,0,0,0,0,0,0,0,0,0,0,0,0,0,0,0,0,0,0,0,0,0,0,0,0,0,0,0,0,0,0,0,0,0,0,0.2432,0.2431,0,0.2422,0.2422,0.2422,0.2407,0.2407,0.2406,0.2406,0.2499,0.2502,0.2505,0,0,0,0,0,0,0,0,0,0,0,0,0,0.2454,0.2454,0.2432,0.2431,0.2431,0.2422,0.2422,0.2422,0.2407,0.2407,0.2406,0.2405,0.2498,0.2502,0.2505,0,0,0,0,0,0,0,0,0,0,0,0,0,0.2448,0.2454,0.2432,0.242,0.2419,0.2422,0.2422,0.2422,0.2407,0.2407,0.2406,0.2405,0.2497,0.2501,0.2506,0.255,0,0,0.252,0.2521,0,0,0,0,0,0,0,0,0.2448,0.2447,0.2422,0.2421,0.2419,0.2412,0.2464,0.2469,0.2408,0.2415,0.2406,0.2405,0.2478,0.2484,0.2487,0.2555,0.2559,0.252,0.2523,0.2525,0.2526,0,0,0,0,0,0,0,0.2448,0.2447,0.2431,0.2422,0.242,0.2421,0.2419,0.2465,0.2456,0.2414,0.2412,0.2407,0.2478,0.2483,0.249,0.256,0.252,0.2524,0.2527,0.2528,0.2757,0.276,0,0,0,0,0,0,0.2443,0.2448,0.2431,0.243,0.2428,0.2421,0.2419,0.2418,0.2453,0.2456,0.2407,0.2406,0.2475,0.2484,0.2493,0.2609,0.2525,0.2529,0.2531,0.2754,0.2758,0.2762,0,0,0,0,0,0,0.2444,0.2442,0.2432,0.2436,0.2434,0.2421,0.242,0.2418,0.2424,0.2446,0.2451,0.2414,0.2475,0.2487,0.2559,0.261,0.2531,0.2535,0.275,0.2755,0.276,0.2802,0,0,0,0,0,0,0.2445,0.2443,0.2448,0.2436,0.2434,0.2444,0.242,0.2418,0.242,0.2418,0.2455,0.2461,0.2475,0.2552,0.2564,0.2615,0.2538,0.2746,0.2752,0.2758,0.2797,0.2808,0.2818,0,0,0,0,0,0.2446,0.2456,0.2449,0.2447,0.2439,0.2445,0.2446,0.2434,0.2421,0.2435,0.247,0.246,0.2601,0.2559,0.2571,0.2625,0.2742,0.275,0.2758,0.2792,0.2806,0.2818,0,0,0,0,0,0,0.2477,0.2455,0.2446,0.2452,0.2452,0.2441,0.2448,0.2441,0.2475,0.2479,0.2497,0.2509,0.2594,0.2612,0.2564,0.2714,0.2674,0.2684,0.2696,0.2709,0.272,0.2704,0.2542,0,0,0,0,0,0.2484,0.2483,0.2468,0.2476,0.2473,0.2463,0.2464,0.246,0.248,0.2491,0.2518,0.2568,0.2637,0.267,0.2723,0.2801,0.2834,0.2849,0.286,0.2869,0.2869,0.2977,0.2997,0.2786,0.2786,0.2786,0,0,0.2499,0.2486,0.2486,0.2482,0.2477,0.2497,0.2463,0.2471,0.2504,0.2502,0.2564,0.2603,0.2667,0.2756,0.2796,0.2774,0.295,0.2878,0.2885,0.288,0.2987,0.3007,0.3025,0.2792,0.2791,0.279,0,0,0.2536,0.2515,0.2531,0.253,0.2526,0.2524,0.2528,0.2528,0.2543,0.2606,0.2626,0.2695,0.2779,0.2838,0.288,0.2987,0.3002,0.301,0.3051,0.3157,0.3175,0.319,0.3264,0.3285,0.3016,0.3016,0.3016,0,0.2563,0.257,0.2541,0.2559,0.2563,0.254,0.257,0.2589,0.262,0.2652,0.2637,0.2788,0.2824,0.2956,0.2986,0.3009,0.3059,0.2989,0.3169,0.3185,0.32,0.3271,0.3295,0.3019,0.3019,0.3019,0.3018,0,0.2612,0.2618,0.2626,0.2639,0.2648,0.2664,0.2675,0.2703,0.2714,0.2738,0.2848,0.2904,0.2992,0.3025,0.3033,0.3172,0.3169,0.3165,0.3124,0.3223,0.3293,0.3316,0.3024,0.3023,0.3022,0.3021,0,0,0.2676,0.2665,0.2667,0.2676,0.2686,0.2697,0.2757,0.2806,0.2848,0.29,0.2976,0.309,0.31,0.315,0.3182,0.326,0.3401,0.3252,0.3256,0.3304,0.3625,0.3551,0.3569,0.343,0.3434,0.3438,0.3631,0,0.2729,0.276,0.275,0.2792,0.2807,0.2804,0.2857,0.2901,0.2938,0.3005,0.308,0.3163,0.3159,0.3199,0.3287,0.3365,0.3465,0.3348,0.354,0.3545,0.3451,0.3595,0.3446,0.3599,0.3653,0.3657,0.366,0,0.2788,0.2793,0.2832,0.2849,0.2857,0.2886,0.2943,0.2989,0.3075,0.3107,0.32,0.324,0.3369,0.3339,0.3552,0.3479,0.3562,0.3618,0.3627,0.3555,0.3516,0.3513,0.364,0.3466,0.3696,0.3693,0.3691,0,0.2832,0.2855,0.288,0.2885,0.2907,0.2934,0.2957,0.3025,0.3066,0.3169,0.3208,0.3359,0.3431,0.3568,0.3668,0.363,0.3884,0.3852,0.3878,0.3873,0.378,0.3759,0.3741,0.4033,0.4032,0.4032,0.4031,0,0.2887,0.2906,0.2894,0.2904,0.294,0.2954,0.301,0.3052,0.3122,0.3182,0.3258,0.3336,0.3492,0.3632,0.3725,0.3873,0.3951,0.3916,0.3936,0.3791,0.3769,0.3637,0.3547,0.4039,0.4037,0.4036,0.4035,0,0.2927,0.2922,0.2943,0.2953,0.2956,0.2979,0.301,0.3052,0.3112,0.3193,0.3227,0.336,0.3527,0.3675,0.3896,0.3939,0.3961,0.4123,0.3919,0.391,0.3718,0.3636,0.3589,0.3508,0.4181,0.4181,0.4181,0,0.2951,0.2962,0.296,0.296,0.2959,0.2982,0.3,0.3048,0.3084,0.3204,0.3247,0.3413,0.3519,0.3793,0.3918,0.4098,0.3958,0.4039,0.3935,0.371,0.3637,0.3498,0.3423,0.3844,0.3841,0.3839,0.3837,0,0.2988,0.2979,0.2985,0.2974,0.2979,0.2981,0.3006,0.3027,0.3093,0.3147,0.3238,0.3327,0.3568,0.3661,0.3869,0.3958,0.3785,0.3989,0.3835,0.3439,0.3214,0.3142,0.369,0.3814,0.3817,0.3818,0.382,0.382,0.3011,0.3007,0.2998,0.2983,0.2978,0.296,0.2939,0.2976,0.3005,0.304,0.317,0.323,0.3375,0.3631,0.369,0.363,0.3664,0.3532,0.3479,0.3381,0.3201,0.3674,0.3759,0.3761,0.3763,0.3764,0.3765,0,0.3027,0.3011,0.3004,0.2963,0.2918,0.2925,0.2919,0.2874,0.2866,0.2943,0.2987,0.3024,0.3104,0.3202,0.323,0.3118,0.3046,0.3027,0.2789,0.2768,0.3269,0.3146,0.3004,0.3004,0.3004,0.3004,0.3004,0.3004,0.3037,0.3017,0.299,0.2899,0.2856,0.2755,0.2722,0.2679,0.2694,0.2632,0.2607,0.2652,0.274,0.2734,0.262,0.2592,0.2387,0.232,0.2329,0.2632,0.2674,0.2713,0.2575,0.2315,0.2314,0.1744,0.1738,0.1735]},{"header":{"parameterUnit":"m.s-1","parameterCategory":2,"la1":30.2991,"la2":30.254,"lo1":-89.0895,"lo2":-89.0444,"dy":0.0017,"dx":0.0017,"nx":28,"ny":28,"refTime":"2025-06-19T21:00:00:Z","depth":"0","parameterNumber":3,"parameterNumberName":"V-component_of_CURRENTS"},"data":[0,0,0,0,0,0,0,0,0,0,0,0,0,0,0,0,0,0,0,0,0,0,0,0,0,0,0,0,0,0,0,0,0,0,0,0,0,0,0,0,0,0,0,0,0,0,0,0,0,0,0,0,0,0,0,0,0,0,0.011,0.0111,0,0.0208,0.0209,0.021,0.0218,0.0217,0.0216,0.0215,0.021,0.021,0.0211,0,0,0,0,0,0,0,0,0,0,0,0,0,-0.0051,-0.0048,0.0109,0.0111,0.0112,0.0207,0.0209,0.021,0.0219,0.0217,0.0216,0.0215,0.0209,0.021,0.0211,0,0,0,0,0,0,0,0,0,0,0,0,0,0.003,-0.0047,0.0109,0.0128,0.013,0.0207,0.0209,0.0211,0.0219,0.0217,0.0216,0.0214,0.0209,0.021,0.0211,0.025,0,0,0.0215,0.0216,0,0,0,0,0,0,0,0,0.0026,0.0036,0.0124,0.0127,0.013,0.0199,0.015,0.0219,0.0219,0.0185,0.0215,0.0214,0.0198,0.02,0.0223,0.025,0.025,0.0215,0.0216,0.0217,0.0217,0,0,0,0,0,0,0,0.002,0.0032,0.0148,0.0125,0.0129,0.0138,0.0148,0.0164,0.0197,0.0188,0.0189,0.0201,0.0198,0.0222,0.0223,0.025,0.0215,0.0216,0.0217,0.0218,0.0277,0.0278,0,0,0,0,0,0,0.0009,0.0027,0.0145,0.0151,0.0073,0.0142,0.0153,0.0178,0.0199,0.0202,0.0202,0.0201,0.0221,0.0221,0.0222,0.0261,0.0217,0.0218,0.0218,0.0276,0.0277,0.0278,0,0,0,0,0,0,0.0006,0.002,0.0141,0.009,0.0106,0.0146,0.0175,0.0181,0.0202,0.0211,0.0211,0.0215,0.022,0.0221,0.0249,0.0261,0.0218,0.0219,0.0275,0.0277,0.0278,0.0343,0,0,0,0,0,0,0.0001,0.0018,0.0038,0.009,0.0109,0.0195,0.0177,0.0184,0.0211,0.0211,0.0222,0.0221,0.0218,0.0247,0.025,0.0262,0.022,0.0274,0.0276,0.0277,0.034,0.0347,0.0352,0,0,0,0,0,-0.0005,0.0036,0.0038,0.0053,0.0133,0.0197,0.0208,0.023,0.0213,0.0239,0.0245,0.022,0.0258,0.025,0.0253,0.0265,0.0273,0.0275,0.0277,0.0337,0.0345,0.0352,0,0,0,0,0,0,-0.0014,0.0042,0.0046,0.0103,0.0146,0.0198,0.0227,0.0234,0.0262,0.0253,0.0248,0.0249,0.0271,0.0264,0.0255,0.0284,0.0255,0.0258,0.03,0.0307,0.0313,0.0312,0.0221,0,0,0,0,0,-0.0009,0.0032,0.0081,0.0129,0.0148,0.0184,0.0211,0.0225,0.0255,0.0266,0.0276,0.0277,0.0285,0.0292,0.03,0.0331,0.0313,0.0334,0.034,0.0345,0.0345,0.0338,0.0344,0.0284,0.0284,0.0284,0,0,0.0002,0.0038,0.0062,0.0128,0.016,0.0211,0.0197,0.0244,0.028,0.026,0.0309,0.0303,0.0298,0.0329,0.0336,0.0323,0.0355,0.0348,0.0352,0.0349,0.0341,0.0347,0.0352,0.0286,0.0285,0.0285,0,0,0.0048,0.0074,0.012,0.0158,0.0208,0.0234,0.0245,0.0296,0.031,0.036,0.0342,0.035,0.0377,0.0377,0.0377,0.0422,0.0386,0.0413,0.0449,0.0443,0.0448,0.0452,0.0446,0.0449,0.0418,0.0418,0.0419,0,0.0057,0.0123,0.0145,0.0197,0.0232,0.0243,0.0296,0.0325,0.0378,0.0389,0.0379,0.0408,0.0401,0.0426,0.0437,0.0436,0.0424,0.0424,0.0451,0.0455,0.0457,0.0451,0.0453,0.0422,0.0421,0.0421,0.0421,0,0.0137,0.0185,0.0217,0.0282,0.0322,0.0372,0.0405,0.0435,0.0442,0.046,0.0486,0.0488,0.0501,0.0494,0.0481,0.0496,0.0478,0.0459,0.0433,0.0467,0.0458,0.0459,0.0427,0.0425,0.0424,0.0424,0,0,0.0172,0.0255,0.0266,0.03,0.0366,0.0407,0.0459,0.0508,0.0534,0.0559,0.0597,0.0597,0.058,0.0578,0.0559,0.0548,0.0558,0.0513,0.0511,0.051,0.0544,0.0528,0.0527,0.0542,0.0542,0.0543,0.0533,0,0.0227,0.032,0.0353,0.0439,0.0487,0.0509,0.0558,0.0594,0.0615,0.0655,0.0636,0.0664,0.0618,0.0625,0.0609,0.0577,0.0563,0.0563,0.0509,0.0508,0.0491,0.0529,0.0557,0.055,0.0534,0.0534,0.0534,0,0.0296,0.0346,0.0431,0.0505,0.0527,0.0576,0.0635,0.0684,0.0722,0.0736,0.0748,0.0741,0.0743,0.0695,0.0654,0.0656,0.0602,0.0565,0.0564,0.0524,0.0494,0.0511,0.0552,0.0445,0.0536,0.0536,0.0535,0,0.0301,0.0402,0.0462,0.0493,0.0577,0.0609,0.0652,0.07,0.0742,0.0786,0.0821,0.0814,0.0829,0.0765,0.0697,0.0675,0.0645,0.0609,0.0541,0.0539,0.054,0.0538,0.0472,0.0566,0.0566,0.0566,0.0566,0,0.0349,0.0401,0.0466,0.0501,0.0569,0.0622,0.0691,0.0728,0.0793,0.0855,0.0858,0.0912,0.0844,0.0825,0.0734,0.0656,0.0676,0.0555,0.0539,0.0565,0.0565,0.045,0.0389,0.0565,0.0565,0.0566,0.0566,0,0.0358,0.0402,0.047,0.0547,0.0573,0.062,0.0717,0.0771,0.0826,0.0912,0.0934,0.0989,0.0977,0.0899,0.0815,0.0719,0.0587,0.0591,0.0627,0.0616,0.0439,0.0381,0.0307,0.0295,0.0518,0.0518,0.0517,0,0.0376,0.0408,0.0485,0.0524,0.0562,0.0636,0.0695,0.0773,0.0842,0.0965,0.1017,0.105,0.11,0.099,0.0836,0.0694,0.059,0.0595,0.0549,0.044,0.0364,0.0328,0.0322,0.0581,0.0581,0.0582,0.0582,0,0.04,0.0415,0.0466,0.0536,0.0599,0.0681,0.0773,0.0832,0.0939,0.1027,0.1151,0.1208,0.1144,0.1063,0.0874,0.0753,0.0544,0.0591,0.0476,0.0406,0.0368,0.0346,0.0571,0.0583,0.0583,0.0583,0.0583,0.0583,0.0406,0.0438,0.0493,0.0561,0.0635,0.073,0.0796,0.0904,0.1024,0.1169,0.1231,0.1349,0.1231,0.1007,0.0841,0.0538,0.0538,0.0433,0.0374,0.0349,0.033,0.0554,0.0545,0.0544,0.0544,0.0544,0.0544,0,0.0416,0.0458,0.0522,0.061,0.0691,0.073,0.0857,0.093,0.1066,0.1229,0.1341,0.1389,0.12,0.0977,0.0586,0.0363,0.0308,0.0237,0.0194,0.0199,0.0398,0.0393,0.0354,0.0354,0.0354,0.0354,0.0354,0.0354,0.0428,0.0479,0.0514,0.0638,0.0709,0.081,0.0879,0.0984,0.1112,0.1303,0.1428,0.1523,0.1393,0.0681,0.0226,0.013,0.0001,-0.0025,-0.0092,0.0022,0.0035,0.0048,0.0028,-0.0087,-0.0087,-0.0232,-0.0234,-0.0236]}],[{"header":{"parameterUnit":"m.s-1","parameterCategory":2,"la1":30.2991,"la2":30.254,"lo1":-89.0895,"lo2":-89.0444,"dy":0.0017,"dx":0.0017,"nx":28,"ny":28,"refTime":"2025-06-19T21:00:00:Z","depth":"2","parameterNumber":2,"parameterNumberName":"U-component_of_CURRENTS"},"data":[0,0,0,0,0,0,0,0,0,0,0,0,0,0,0,0,0,0,0,0,0,0,0,0,0,0,0,0,0,0,0,0,0,0,0,0,0,0,0,0,0,0,0,0,0,0,0,0,0,0,0,0,0,0,0,0,0,0,0.1093,0.1093,0,0.1144,0.1144,0.1144,0.1163,0.1163,0.1163,0.1163,0.1326,0.133,0.1335,0,0,0,0,0,0,0,0,0,0,0,0,0,0.1003,0.1004,0.1093,0.1093,0.1094,0.1143,0.1144,0.1145,0.1163,0.1163,0.1163,0.1163,0.1325,0.133,0.1335,0,0,0,0,0,0,0,0,0,0,0,0,0,0.1045,0.1005,0.1093,0.111,0.1113,0.1143,0.1144,0.1145,0.1164,0.1163,0.1163,0.1163,0.1323,0.1329,0.1336,0.1378,0,0,0.1356,0.1359,0,0,0,0,0,0,0,0,0.1043,0.1048,0.1107,0.1109,0.1112,0.1148,0.1172,0.1229,0.1164,0.1143,0.1163,0.1163,0.1278,0.1288,0.1295,0.1386,0.1393,0.1357,0.1361,0.1363,0.1365,0,0,0,0,0,0,0,0.104,0.1046,0.1112,0.1108,0.1111,0.1113,0.1119,0.1182,0.1211,0.1145,0.1147,0.1154,0.128,0.1288,0.1299,0.1395,0.1356,0.1362,0.1366,0.1369,0.1647,0.165,0,0,0,0,0,0,0.1037,0.1044,0.111,0.1113,0.1078,0.1115,0.1121,0.1136,0.1208,0.1219,0.1154,0.1155,0.1277,0.1291,0.1305,0.1443,0.1363,0.137,0.1373,0.1644,0.1648,0.1651,0,0,0,0,0,0,0.1035,0.1043,0.1108,0.108,0.1089,0.1116,0.1132,0.1137,0.117,0.1214,0.1227,0.1186,0.1277,0.1296,0.1403,0.1447,0.1372,0.1378,0.1639,0.1645,0.165,0.1667,0,0,0,0,0,0,0.1032,0.1042,0.1069,0.108,0.109,0.1143,0.1133,0.1138,0.1174,0.1176,0.1246,0.1259,0.1279,0.1393,0.1409,0.1455,0.1384,0.1635,0.1642,0.1648,0.1662,0.1672,0.1681,0,0,0,0,0,0.1029,0.1076,0.107,0.1079,0.1121,0.1144,0.115,0.1168,0.1176,0.1197,0.1261,0.1258,0.1445,0.1401,0.1419,0.1468,0.1632,0.164,0.1647,0.1658,0.1671,0.1681,0,0,0,0,0,0,0.1075,0.1082,0.1076,0.113,0.1138,0.1148,0.1191,0.1186,0.1249,0.127,0.1304,0.1323,0.1435,0.146,0.1411,0.1572,0.1539,0.155,0.1541,0.1553,0.1562,0.1565,0.1389,0,0,0,0,0,0.109,0.1116,0.1117,0.1162,0.1177,0.1185,0.1205,0.1205,0.125,0.1276,0.1322,0.1395,0.1477,0.1521,0.1591,0.1678,0.1716,0.1725,0.1735,0.1742,0.1762,0.1867,0.1887,0.1677,0.1677,0.1677,0,0,0.1118,0.1131,0.1146,0.1172,0.1193,0.1206,0.1199,0.1239,0.1258,0.129,0.1371,0.1436,0.1513,0.1611,0.1663,0.1638,0.1821,0.1752,0.1757,0.1773,0.1877,0.1897,0.1915,0.1682,0.1681,0.168,0,0,0.1161,0.1206,0.1219,0.123,0.1251,0.1259,0.1273,0.1293,0.1323,0.139,0.1436,0.1535,0.1631,0.1701,0.1747,0.1859,0.1873,0.188,0.1922,0.2023,0.2041,0.2057,0.2113,0.2134,0.1876,0.1876,0.1876,0,0.1195,0.121,0.1232,0.1242,0.1266,0.1283,0.1298,0.1331,0.138,0.1433,0.1424,0.1622,0.1675,0.1821,0.1854,0.1878,0.1924,0.186,0.2032,0.2049,0.2065,0.2119,0.2142,0.1878,0.1877,0.1877,0.1877,0,0.1211,0.1238,0.1268,0.1276,0.1305,0.1339,0.1367,0.1419,0.1458,0.1487,0.1638,0.172,0.1836,0.1869,0.1892,0.2045,0.2036,0.2032,0.199,0.2086,0.2138,0.2161,0.188,0.188,0.1879,0.1879,0,0,0.1276,0.1268,0.1288,0.1287,0.133,0.1354,0.1426,0.1496,0.1564,0.1632,0.1737,0.1878,0.1929,0.199,0.2044,0.2127,0.2262,0.2125,0.2129,0.2157,0.2467,0.2225,0.2227,0.2285,0.229,0.2294,0.245,0,0.1291,0.1286,0.1298,0.1335,0.1348,0.1402,0.1465,0.1538,0.1617,0.1724,0.1843,0.1962,0.1972,0.2041,0.2134,0.2245,0.2328,0.2219,0.2392,0.2397,0.2151,0.2247,0.2028,0.2128,0.2472,0.2476,0.2479,0,0.1311,0.1308,0.1321,0.1356,0.1376,0.1408,0.1541,0.159,0.1745,0.1812,0.1953,0.2039,0.2209,0.2183,0.2416,0.2347,0.2418,0.2479,0.2486,0.2273,0.2198,0.2097,0.2157,0.2517,0.2514,0.2511,0.2509,0,0.1346,0.1345,0.1355,0.1367,0.1405,0.1459,0.1501,0.1634,0.1706,0.1881,0.1964,0.2156,0.2268,0.2404,0.2526,0.2492,0.2751,0.2713,0.2566,0.2549,0.2401,0.236,0.288,0.288,0.2879,0.2879,0.2879,0,0.1369,0.1398,0.1364,0.1394,0.143,0.1464,0.1561,0.1636,0.1769,0.1874,0.2013,0.2143,0.2333,0.249,0.2578,0.2634,0.28,0.2594,0.2584,0.2395,0.2354,0.2723,0.2703,0.2885,0.2884,0.2882,0.2881,0,0.1416,0.1397,0.142,0.1445,0.1449,0.1486,0.1556,0.1621,0.175,0.1895,0.1957,0.2176,0.2372,0.2527,0.2752,0.2672,0.2766,0.2748,0.2476,0.2426,0.2481,0.2461,0.2586,0.2579,0.2573,0.2568,0.2564,0,0.1422,0.1418,0.1451,0.1441,0.1455,0.1489,0.1515,0.1614,0.1682,0.1916,0.1987,0.2218,0.2327,0.2516,0.2495,0.2556,0.2726,0.2325,0.2188,0.2479,0.2459,0.2447,0.2435,0.2028,0.202,0.2014,0.2008,0,0.1427,0.1455,0.1466,0.145,0.1461,0.1471,0.1517,0.1563,0.1701,0.1824,0.2007,0.2104,0.2222,0.2159,0.2157,0.2165,0.2275,0.2175,0.2648,0.2074,0.1948,0.1928,0.1938,0.1948,0.1954,0.1959,0.1962,0.1964,0.1424,0.1432,0.1445,0.142,0.1433,0.1458,0.1501,0.1534,0.1634,0.1786,0.1905,0.1961,0.1883,0.1759,0.1754,0.1754,0.1862,0.177,0.1796,0.1828,0.1673,0.1536,0.1431,0.1434,0.1436,0.1438,0.144,0,0.1388,0.1409,0.1387,0.1395,0.1413,0.1467,0.1505,0.1508,0.16,0.1658,0.1757,0.1499,0.14,0.1464,0.1302,0.1183,0.1245,0.1201,0.1293,0.1346,0.1395,0.1225,0.0863,0.0862,0.0862,0.0861,0,0,0.136,0.135,0.1341,0.1359,0.1414,0.1478,0.1534,0.1483,0.1473,0.1409,0.1393,0.1402,0.1337,0.1086,0.0998,0.0952,0.1184,0.0925,0.1367,0.1529,0.158,0.1667,0.1454,0,0,0,0,0]},{"header":{"parameterUnit":"m.s-1","parameterCategory":2,"la1":30.2991,"la2":30.254,"lo1":-89.0895,"lo2":-89.0444,"dy":0.0017,"dx":0.0017,"nx":28,"ny":28,"refTime":"2025-06-19T21:00:00:Z","depth":"2","parameterNumber":3,"parameterNumberName":"V-component_of_CURRENTS"},"data":[0,0,0,0,0,0,0,0,0,0,0,0,0,0,0,0,0,0,0,0,0,0,0,0,0,0,0,0,0,0,0,0,0,0,0,0,0,0,0,0,0,0,0,0,0,0,0,0,0,0,0,0,0,0,0,0,0,0,0.0218,0.0218,0,0.0258,0.0259,0.026,0.0266,0.0266,0.0265,0.0264,0.02,0.0199,0.0198,0,0,0,0,0,0,0,0,0,0,0,0,0,0.0222,0.0222,0.0218,0.0218,0.0218,0.0258,0.0259,0.026,0.0266,0.0266,0.0265,0.0264,0.02,0.0199,0.0198,0,0,0,0,0,0,0,0,0,0,0,0,0,0.024,0.0222,0.0218,0.0224,0.0224,0.0258,0.0259,0.026,0.0267,0.0266,0.0265,0.0264,0.0201,0.0199,0.0198,0.0207,0,0,0.0193,0.0192,0,0,0,0,0,0,0,0,0.0239,0.024,0.0223,0.0223,0.0224,0.0253,0.0237,0.0236,0.0267,0.0254,0.0264,0.0263,0.0207,0.0205,0.0221,0.0204,0.0202,0.0193,0.0192,0.0191,0.019,0,0,0,0,0,0,0,0.0238,0.0239,0.0237,0.0223,0.0224,0.025,0.0251,0.0238,0.0236,0.0255,0.0255,0.0254,0.0207,0.0222,0.0219,0.0201,0.0193,0.0191,0.019,0.0189,0.0153,0.0153,0,0,0,0,0,0,0.0223,0.0238,0.0236,0.0238,0.0226,0.025,0.0252,0.0248,0.0239,0.0236,0.0255,0.0254,0.0226,0.0221,0.0216,0.0219,0.0191,0.0189,0.0188,0.0153,0.0153,0.0153,0,0,0,0,0,0,0.0223,0.0222,0.0234,0.0236,0.0239,0.025,0.0246,0.0249,0.0238,0.0239,0.0235,0.0238,0.0225,0.0219,0.021,0.0216,0.0189,0.0187,0.0153,0.0153,0.0153,0.0229,0,0,0,0,0,0,0.0223,0.0222,0.0203,0.0235,0.0238,0.0249,0.0247,0.025,0.0239,0.0238,0.0223,0.0218,0.0223,0.0213,0.0208,0.0214,0.0186,0.0153,0.0153,0.0153,0.0226,0.0232,0.0236,0,0,0,0,0,0.0223,0.0197,0.0202,0.0201,0.0216,0.0249,0.0254,0.0262,0.0239,0.0245,0.0241,0.0217,0.0209,0.0212,0.0207,0.0212,0.0153,0.0153,0.0153,0.0224,0.0231,0.0236,0,0,0,0,0,0,0.0169,0.0197,0.0202,0.018,0.0212,0.0249,0.0236,0.0245,0.0248,0.0229,0.0227,0.0224,0.0221,0.0197,0.0201,0.0198,0.0172,0.0171,0.0228,0.0233,0.0238,0.0258,0.0184,0,0,0,0,0,0.0154,0.0152,0.0188,0.0169,0.0175,0.0201,0.0206,0.022,0.0231,0.023,0.0228,0.0215,0.0222,0.0211,0.0212,0.0206,0.0178,0.02,0.0205,0.0209,0.022,0.0184,0.0187,0.0154,0.0154,0.0154,0,0,0.0127,0.0139,0.0136,0.016,0.0173,0.022,0.0201,0.0205,0.025,0.022,0.0248,0.0231,0.0225,0.0241,0.0233,0.0217,0.0204,0.0209,0.0214,0.0222,0.0185,0.0188,0.0191,0.0154,0.0154,0.0154,0,0,0.0112,0.0082,0.0101,0.0132,0.0159,0.019,0.0186,0.022,0.0231,0.0262,0.0256,0.0251,0.0245,0.0265,0.0269,0.029,0.0236,0.0263,0.0301,0.0266,0.0269,0.0271,0.0246,0.0245,0.026,0.026,0.026,0,0.0076,0.0115,0.011,0.0153,0.018,0.0179,0.023,0.0254,0.0287,0.0303,0.0272,0.0288,0.0272,0.0315,0.0325,0.0305,0.0266,0.0287,0.0275,0.0276,0.0277,0.025,0.0249,0.0264,0.0263,0.0263,0.0262,0,0.0122,0.0142,0.0144,0.0215,0.0243,0.0269,0.0316,0.0334,0.033,0.0363,0.0379,0.0366,0.0373,0.0362,0.0352,0.0356,0.0321,0.0292,0.0266,0.0285,0.0255,0.0252,0.0269,0.0267,0.0266,0.0265,0,0,0.0073,0.0165,0.0165,0.0218,0.0277,0.031,0.0367,0.0436,0.0471,0.0471,0.0517,0.0515,0.0475,0.0475,0.0446,0.0416,0.039,0.0349,0.0345,0.0336,0.0304,0.0314,0.0311,0.0342,0.0342,0.0341,0.0283,0,0.0115,0.0211,0.025,0.0342,0.0395,0.0422,0.0484,0.0534,0.0554,0.0594,0.0569,0.0585,0.0529,0.0511,0.0478,0.0421,0.0383,0.0408,0.0277,0.0274,0.0289,0.0309,0.0254,0.02,0.0279,0.0279,0.0278,0,0.017,0.0226,0.0318,0.0425,0.0446,0.0493,0.0573,0.0632,0.0682,0.0689,0.0689,0.0668,0.0651,0.0576,0.0487,0.0495,0.0401,0.0344,0.0339,0.0323,0.0278,0.019,0.0191,0.0273,0.0273,0.0274,0.0274,0,0.0163,0.0281,0.0352,0.0386,0.0496,0.0524,0.0573,0.0639,0.0693,0.0726,0.0754,0.073,0.0705,0.0602,0.0495,0.0468,0.0387,0.0337,0.0264,0.0264,0.0182,0.0176,0.0254,0.0254,0.0254,0.0254,0.0255,0,0.0204,0.0259,0.0344,0.0371,0.0453,0.0519,0.0591,0.0639,0.0709,0.0787,0.0774,0.0821,0.0698,0.0652,0.0527,0.0408,0.0406,0.0284,0.0253,0.0208,0.0205,0.0236,0.0235,0.0252,0.0253,0.0253,0.0253,0,0.0193,0.0248,0.0327,0.0417,0.0443,0.0487,0.0591,0.0658,0.0712,0.081,0.0818,0.0866,0.0813,0.0709,0.0562,0.0457,0.0338,0.0285,0.0255,0.0223,0.0224,0.0227,0.0193,0.0193,0.0193,0.0193,0.0193,0,0.0214,0.025,0.0324,0.0361,0.0391,0.0466,0.053,0.0623,0.0711,0.0854,0.0913,0.091,0.0943,0.077,0.0562,0.0368,0.0355,0.02,0.015,0.0246,0.0219,0.0222,0.0225,0.0062,0.0061,0.006,0.0059,0,0.0245,0.0242,0.0296,0.0351,0.0406,0.051,0.0608,0.0687,0.0826,0.0925,0.1064,0.1099,0.0949,0.0747,0.0498,0.0369,0.0233,0.0177,0.0272,0.0105,0.0122,0.0096,0.0103,0.0051,0.0052,0.0052,0.0053,0.0053,0.0256,0.0288,0.0323,0.0387,0.0454,0.0567,0.0649,0.0789,0.0941,0.1104,0.1133,0.1155,0.0886,0.0553,0.0365,0.0184,0.0188,0.0075,0.0076,0.0079,0.0094,0.0112,0.0042,0.0042,0.0043,0.0044,0.0044,0,0.0291,0.0316,0.0375,0.0461,0.0543,0.0559,0.0726,0.0838,0.102,0.1119,0.1199,0.0948,0.0725,0.0505,0.0193,0.0009,-0.0006,-0.0016,-0.0041,-0.0034,-0.0027,-0.0018,-0.01,-0.01,-0.01,-0.0101,0,0,0.0321,0.0369,0.0401,0.053,0.0582,0.0696,0.0786,0.0938,0.1038,0.1154,0.1129,0.1009,0.0725,0.0439,0.0184,0.0058,0.0078,0.0051,0.0171,0.0175,0.0185,0.0013,0.0035,0,0,0,0,0]}],[{"header":{"parameterUnit":"m.s-1","parameterCategory":2,"la1":30.2991,"la2":30.254,"lo1":-89.0895,"lo2":-89.0444,"dy":0.0017,"dx":0.0017,"nx":28,"ny":28,"refTime":"2025-06-19T21:00:00:Z","depth":"4","parameterNumber":2,"parameterNumberName":"U-component_of_CURRENTS"},"data":[0,0,0,0,0,0,0,0,0,0,0,0,0,0,0,0,0,0,0,0,0,0,0,0,0,0,0,0,0,0,0,0,0,0,0,0,0,0,0,0,0,0,0,0,0,0,0,0,0,0,0,0,0,0,0,0,0,0,0.0028,0.0029,0,0.0078,0.0078,0.0078,0.0133,0.0134,0.0136,0.0137,0.0052,0.0049,0.0046,0,0,0,0,0,0,0,0,0,0,0,0,0,-0.0091,-0.0089,0.0028,0.0029,0.003,0.0078,0.0078,0.0078,0.0133,0.0134,0.0136,0.0138,0.0054,0.0049,0.0045,0,0,0,0,0,0,0,0,0,0,0,0,0,-0.0046,-0.0089,0.0027,0.0068,0.0072,0.0078,0.0078,0.0078,0.0132,0.0135,0.0137,0.0139,0.0055,0.005,0.0045,-0.003,0,0,0.0028,0.0026,0,0,0,0,0,0,0,0,-0.0048,-0.0042,0.0061,0.0065,0.007,0.0107,0.0006,0.0038,0.0132,0.0103,0.0137,0.014,0.0061,0.0055,0.0053,-0.0034,-0.0037,0.0028,0.0025,0.0022,0.0021,0,0,0,0,0,0,0,-0.0052,-0.0045,0.0041,0.0062,0.0068,0.006,0.0069,0.0012,0.0062,0.0105,0.0111,0.0126,0.0062,0.0058,0.0051,-0.0038,0.0028,0.0023,0.002,0.0018,-0.0126,-0.0127,0,0,0,0,0,0,-0.0043,-0.0047,0.004,0.0043,0.0022,0.0062,0.0071,0.0088,0.0066,0.0067,0.0125,0.0129,0.0066,0.0057,0.0048,0.0047,0.0022,0.0017,0.0014,-0.0125,-0.0126,-0.0127,0,0,0,0,0,0,-0.0046,-0.0036,0.0038,0.0004,0.0014,0.0063,0.0081,0.0088,0.0144,0.0083,0.0081,0.0182,0.0067,0.0055,0.0029,0.004,0.0015,0.001,-0.0125,-0.0126,-0.0127,-0.0014,0,0,0,0,0,0,-0.005,-0.0037,-0.0007,0.0005,0.0017,0.0075,0.008,0.0088,0.015,0.0157,0.0129,0.0121,0.0068,0.0038,0.0024,0.0033,0.0006,-0.0124,-0.0125,-0.0126,-0.0017,-0.0011,-0.0006,0,0,0,0,0,-0.0054,-0.0024,-0.0006,0.0006,0.0052,0.0077,0.0083,0.0118,0.0152,0.0177,0.0151,0.0125,0.002,0.0033,0.0017,0.0025,-0.0123,-0.0125,-0.0126,-0.0019,-0.0012,-0.0006,0,0,0,0,0,0,-0.0052,-0.0014,0.0005,0.0049,0.0079,0.009,0.0131,0.0152,0.0156,0.0178,0.0119,0.0107,0.0081,0.0033,0.0049,-0.0025,-0.0058,-0.0063,0.0029,0.0035,0.004,0.0056,0.0002,0,0,0,0,0,-0.004,-0.0004,0.0024,0.0067,0.0092,0.0122,0.0148,0.0174,0.0175,0.0186,0.0167,0.0122,0.005,0.0035,-0.0027,-0.0059,-0.0116,-0.007,-0.0064,-0.0059,-0.006,-0.0167,-0.017,-0.0132,-0.0132,-0.0132,0,0,-0.0029,0.0003,0.0023,0.0071,0.0105,0.013,0.0144,0.0205,0.0214,0.0166,0.019,0.0146,0.0044,0.0003,-0.0013,-0.0024,-0.009,-0.0061,-0.0055,-0.006,-0.0169,-0.0172,-0.0175,-0.0133,-0.0132,-0.0132,0,0,0.0009,0.0049,0.0092,0.012,0.0186,0.0184,0.0217,0.0259,0.0273,0.0282,0.0228,0.0187,0.0136,0.0042,-0.0015,-0.0024,-0.0062,-0.0017,0.0032,-0.007,-0.0074,-0.0078,-0.0102,-0.0109,-0.0008,-0.0007,-0.0007,0,0.0033,0.0084,0.0109,0.0158,0.0185,0.0215,0.0255,0.0252,0.028,0.0266,0.031,0.0191,0.0132,0.0006,0.0026,-0.0013,-0.0033,0.0024,-0.006,-0.0066,-0.0073,-0.0097,-0.0107,-0.0002,-0.0003,-0.0003,-0.0004,0,0.0083,0.0142,0.0177,0.0232,0.0252,0.0304,0.03,0.0322,0.0355,0.0338,0.029,0.0215,0.0149,0.0119,0.0085,0.0002,0.0018,-0.0042,-0.0067,-0.0069,-0.0095,-0.0106,0.0005,0.0003,0.0002,0.0001,0,0,0.0098,0.0194,0.0215,0.0253,0.0304,0.0321,0.0323,0.0308,0.0299,0.0318,0.0285,0.0194,0.0203,0.0137,0.0079,0.0006,-0.0024,0.0009,0.0001,0.0006,-0.0166,-0.0078,-0.0082,-0.0073,-0.0076,-0.0078,-0.0146,0,0.0145,0.0246,0.0264,0.0333,0.0379,0.038,0.0363,0.0346,0.0334,0.0305,0.0219,0.018,0.0188,0.0189,0.0117,-0.0013,-0.0056,0.0005,-0.0184,-0.0189,-0.0096,-0.0096,-0.0087,-0.0155,-0.0158,-0.016,-0.0161,0,0.0186,0.025,0.0342,0.0384,0.0402,0.0428,0.0406,0.0399,0.0323,0.0321,0.0278,0.0233,0.0141,0.0152,-0.0027,0.0034,-0.0027,-0.012,-0.0127,-0.0098,-0.0125,-0.0172,-0.0184,-0.0182,-0.0181,-0.0179,-0.0178,0,0.0187,0.0291,0.0367,0.0394,0.0439,0.0461,0.0472,0.0421,0.0382,0.0351,0.0322,0.023,0.0178,0.0073,-0.0048,-0.0016,-0.0259,-0.0269,-0.0256,-0.0248,-0.0356,-0.0353,-0.0395,-0.0395,-0.0395,-0.0395,-0.0394,0,0.0213,0.0273,0.039,0.0434,0.0477,0.0507,0.0506,0.0501,0.0444,0.0346,0.036,0.0251,0.0161,0.002,-0.0062,-0.0181,-0.0266,-0.0238,-0.0273,-0.0299,-0.0289,-0.0361,-0.0356,-0.0397,-0.0396,-0.0396,-0.0396,0,0.0198,0.0286,0.037,0.0465,0.049,0.0531,0.0536,0.0494,0.0489,0.036,0.0359,0.0258,0.0139,0.0026,-0.0177,-0.0203,-0.0342,-0.037,-0.0345,-0.038,-0.0239,-0.0228,-0.0316,-0.0313,-0.0311,-0.031,-0.0309,0,0.0196,0.0257,0.0393,0.0423,0.048,0.0531,0.0518,0.0527,0.0437,0.0307,0.0197,0.0129,0.0053,-0.0114,-0.0224,-0.0316,-0.0338,-0.0364,-0.0307,-0.0211,-0.0238,-0.0229,-0.0221,-0.0305,-0.0305,-0.0304,-0.0304,0,0.0174,0.0252,0.0315,0.0386,0.0424,0.0417,0.0396,0.0355,0.0279,0.0251,0.0118,0.0088,-0.0043,-0.0103,-0.0146,-0.0257,-0.032,-0.0344,-0.0347,-0.0293,-0.02,-0.0226,-0.022,-0.0297,-0.0298,-0.0299,-0.0299,0,0.0152,0.0186,0.027,0.0317,0.0331,0.0284,0.0316,0.0236,0.0197,0.0088,0.0014,-0.0043,-0.0082,-0.0085,-0.02,-0.0198,-0.0178,-0.017,-0.0182,-0.019,-0.0119,0.0019,-0.0037,0,0,0,0,0,0.0116,0.0133,0.0168,0.0213,0.0208,0.0212,0.0171,0.0178,0.0113,0.0046,0.0061,-0.0036,-0.0057,-0.0101,-0.0071,-0.0189,-0.0219,-0.016,-0.0224,-0.026,-0.0268,-0.0197,0,0,0,0,0,0,0.0086,0.0125,0.0142,0.008,0.0083,0.0051,0.0047,0.0032,0.0006,-0.0019,-0.001,-0.002,-0.0036,-0.0057,-0.0069,-0.0082,-0.0114,-0.018,-0.0178,-0.0256,-0.0263,-0.0269,-0.0199,0,0,0,0,0]},{"header":{"parameterUnit":"m.s-1","parameterCategory":2,"la1":30.2991,"la2":30.254,"lo1":-89.0895,"lo2":-89.0444,"dy":0.0017,"dx":0.0017,"nx":28,"ny":28,"refTime":"2025-06-19T21:00:00:Z","depth":"4","parameterNumber":3,"parameterNumberName":"V-component_of_CURRENTS"},"data":[0,0,0,0,0,0,0,0,0,0,0,0,0,0,0,0,0,0,0,0,0,0,0,0,0,0,0,0,0,0,0,0,0,0,0,0,0,0,0,0,0,0,0,0,0,0,0,0,0,0,0,0,0,0,0,0,0,0,0.0154,0.0153,0,0.0024,0.0022,0.002,-0.0041,-0.0041,-0.004,-0.004,-0.0103,-0.0105,-0.0107,0,0,0,0,0,0,0,0,0,0,0,0,0,0.0231,0.023,0.0154,0.0153,0.0152,0.0024,0.0022,0.002,-0.0041,-0.0041,-0.004,-0.004,-0.0102,-0.0105,-0.0107,0,0,0,0,0,0,0,0,0,0,0,0,0,0.0156,0.023,0.0155,0.0108,0.0103,0.0024,0.0022,0.0019,-0.0041,-0.004,-0.004,-0.0039,-0.0101,-0.0104,-0.0108,-0.0139,0,0,-0.0117,-0.0118,0,0,0,0,0,0,0,0,0.016,0.0153,0.0117,0.0112,0.0106,0.0011,0.0025,-0.0029,-0.0041,0.001,-0.004,-0.0039,-0.0057,-0.0064,-0.0095,-0.0142,-0.0144,-0.0117,-0.0119,-0.012,-0.0121,0,0,0,0,0,0,0,0.0166,0.0157,0.0099,0.0115,0.0108,0.0053,0.0044,0.0014,-0.0026,0.0006,0.0002,-0.0008,-0.006,-0.0092,-0.0097,-0.0145,-0.0117,-0.012,-0.0122,-0.0123,-0.021,-0.021,0,0,0,0,0,0,0.0194,0.0163,0.0103,0.0096,0.0139,0.0052,0.0041,0.0038,-0.0028,-0.0037,-0.0008,-0.001,-0.0087,-0.0093,-0.0099,-0.0141,-0.012,-0.0123,-0.0125,-0.021,-0.021,-0.0211,0,0,0,0,0,0,0.0196,0.019,0.0109,0.0128,0.0115,0.0052,0.0047,0.0035,0.0012,-0.0038,-0.0047,-0.0017,-0.0087,-0.0095,-0.0132,-0.0144,-0.0125,-0.0127,-0.0209,-0.021,-0.021,-0.0224,0,0,0,0,0,0,0.0199,0.0192,0.0197,0.0131,0.0115,0.006,0.0047,0.0032,0.0006,0.0003,-0.0049,-0.0055,-0.0087,-0.0128,-0.0135,-0.0148,-0.013,-0.0208,-0.0209,-0.021,-0.0223,-0.0225,-0.0227,0,0,0,0,0,0.0202,0.021,0.0198,0.0191,0.0125,0.0059,0.0045,-0.0001,0.0006,-0.0017,-0.0049,-0.0053,-0.0138,-0.0131,-0.014,-0.0153,-0.0208,-0.0209,-0.021,-0.0222,-0.0225,-0.0227,0,0,0,0,0,0,0.0253,0.0202,0.0188,0.0183,0.0125,0.005,0.003,0.0008,-0.0037,-0.0029,-0.0068,-0.0079,-0.0116,-0.0129,-0.012,-0.0179,-0.017,-0.0173,-0.0176,-0.0178,-0.018,-0.018,-0.0132,0,0,0,0,0,0.0266,0.0252,0.0193,0.0185,0.0162,0.0101,0.0072,0.0043,-0.0004,-0.0023,-0.0055,-0.0086,-0.013,-0.0147,-0.0184,-0.0217,-0.021,-0.0227,-0.0229,-0.0231,-0.0235,-0.0245,-0.0248,-0.0214,-0.0214,-0.0214,0,0,0.0286,0.0254,0.0249,0.0193,0.0148,0.0092,0.0084,0.0045,0.0,-0.002,-0.0073,-0.0095,-0.014,-0.0188,-0.0203,-0.0198,-0.0231,-0.0232,-0.0234,-0.0237,-0.0247,-0.025,-0.0253,-0.0215,-0.0215,-0.0214,0,0,0.0287,0.0287,0.0257,0.021,0.0148,0.0105,0.01,0.0036,0.001,-0.0039,-0.0069,-0.0098,-0.0152,-0.02,-0.0229,-0.0259,-0.0243,-0.0256,-0.0269,-0.0278,-0.0281,-0.0284,-0.0253,-0.0253,-0.0256,-0.0256,-0.0256,0,0.0312,0.0266,0.0238,0.0184,0.0147,0.0113,0.0062,0.002,-0.0046,-0.0067,-0.005,-0.0141,-0.0165,-0.0248,-0.0256,-0.0265,-0.0249,-0.0259,-0.0281,-0.0283,-0.0286,-0.0254,-0.0254,-0.0257,-0.0257,-0.0257,-0.0257,0,0.0262,0.0232,0.0213,0.0132,0.0088,0.0049,-0.0012,-0.0041,-0.0052,-0.0092,-0.0144,-0.0181,-0.0228,-0.0242,-0.0259,-0.0299,-0.0273,-0.0282,-0.0274,-0.029,-0.0255,-0.0254,-0.0258,-0.0258,-0.0258,-0.0257,0,0,0.03,0.0199,0.0193,0.0148,0.0065,0.0024,-0.0038,-0.011,-0.0142,-0.0176,-0.0223,-0.0282,-0.0269,-0.03,-0.0319,-0.033,-0.0318,-0.0305,-0.0305,-0.0272,-0.0301,-0.0322,-0.0322,-0.0326,-0.0327,-0.0327,-0.0261,0,0.0265,0.0179,0.0129,0.0047,-0.0003,-0.005,-0.0108,-0.0166,-0.0198,-0.0244,-0.0274,-0.0312,-0.0304,-0.0305,-0.0321,-0.0336,-0.032,-0.0333,-0.0293,-0.0291,-0.0307,-0.0325,-0.0329,-0.026,-0.026,-0.026,-0.026,0,0.0219,0.0168,0.0105,0.0004,-0.002,-0.0044,-0.012,-0.018,-0.0251,-0.0271,-0.0307,-0.0335,-0.0373,-0.0341,-0.0357,-0.036,-0.0318,-0.0314,-0.0311,-0.0329,-0.0313,-0.0248,-0.0258,-0.0259,-0.0259,-0.0259,-0.0259,0,0.0246,0.0142,0.0106,0.0073,-0.0031,-0.0032,-0.007,-0.0146,-0.0204,-0.0251,-0.0286,-0.0343,-0.0353,-0.0345,-0.0325,-0.0334,-0.0317,-0.0331,-0.0305,-0.0303,-0.0296,-0.0295,-0.0308,-0.0308,-0.0308,-0.0308,-0.0308,0,0.0215,0.0176,0.0148,0.0128,0.0102,0.0028,-0.0003,-0.0053,-0.0135,-0.0217,-0.0257,-0.0322,-0.035,-0.0363,-0.0329,-0.0315,-0.0309,-0.031,-0.0301,-0.0299,-0.0299,-0.0293,-0.0293,-0.0306,-0.0306,-0.0307,-0.0307,0,0.0227,0.0202,0.0163,0.0119,0.0124,0.0126,0.006,-0.0009,-0.0052,-0.0155,-0.0171,-0.0291,-0.0326,-0.0337,-0.0328,-0.0319,-0.0298,-0.0271,-0.0236,-0.0225,-0.0271,-0.0272,-0.0271,-0.0272,-0.0272,-0.0272,-0.0273,0,0.0209,0.0206,0.0205,0.0209,0.0216,0.021,0.0164,0.0077,-0.0025,-0.015,-0.0232,-0.0282,-0.0353,-0.0332,-0.0347,-0.0296,-0.0283,-0.0244,-0.03,-0.0283,-0.0274,-0.0274,-0.0274,-0.0273,-0.0273,-0.0273,-0.0273,0,0.0176,0.0219,0.0192,0.0234,0.0234,0.0151,0.0092,0.0045,-0.0106,-0.0147,-0.0262,-0.0289,-0.0342,-0.0361,-0.0305,-0.0273,-0.0278,-0.0248,-0.0248,-0.0301,-0.0285,-0.0276,-0.0276,-0.0275,-0.0275,-0.0275,-0.0274,0,0.0172,0.016,0.0174,0.0196,0.02,0.0103,0.0071,-0.0052,-0.0139,-0.0265,-0.0286,-0.0322,-0.0352,-0.0347,-0.0306,-0.0282,-0.03,-0.0277,-0.0275,-0.0274,-0.0315,-0.0298,-0.0289,0,0,0,0,0,0.0148,0.0109,0.0111,0.0097,0.011,0.0124,-0.0018,-0.0085,-0.0168,-0.0245,-0.0266,-0.0306,-0.0306,-0.0324,-0.0304,-0.0345,-0.0309,-0.0324,-0.0283,-0.0282,-0.0281,-0.0334,0,0,0,0,0,0,0.0102,0.0106,0.0073,0.003,0.0066,0.0001,-0.004,-0.0121,-0.0184,-0.0221,-0.0224,-0.0243,-0.025,-0.0261,-0.0262,-0.0269,-0.0236,-0.0331,-0.0331,-0.0283,-0.0282,-0.0281,-0.0335,0,0,0,0,0]}]]